Tracking 29892 objects as of 21-Nov-2024
HD Live streaming from Space Station
objects crossing your sky now

CZ-6A DEB

Track CZ-6A DEB now!
10-day predictions


NORAD ID: 54540
Int'l Code: 2022-151KQ
Perigee: 805.9 km
Apogee: 881.2 km
Inclination: 98.8 °
Period: 101.6 minutes
Semi major axis: 7214 km
RCS: Unknown
Launch date: November 11, 2022
Source: People's Republic of China (PRC)
Launch site: Taiyaun Space Center, China (TSC)

Note: This is SATELLITE DEBRIS
Your satellite tracking list
Your tracking list is empty




NASA's NSSDC Master Catalog

Two Line Element Set (TLE):
1 54540U 22151KQ  24325.89804044  .00001725  00000-0  87269-3 0  9992
2 54540  98.7807 329.4222 0052212 192.3869 167.6026 14.16743212104401
Source of the keplerian elements: AFSPC